Hourly Data Report for November 26, 2017

TORONTO CITY
ONTARIO

43°40'00.000" N
79°24'00.000" W
112.50 m
6158355
71508
XTO

Download Data

Hourly Data (November 2017)
Hourly Data Report for November 26, 2017
TIME
LST
Temp Definition
°C
Dew Point Definition
°C
Rel Hum Definition
%
Precip. Amount Definition
mm

Wind Dir Definition
10's deg

Wind Spd Definition
km/h
Visibility Definition
km
Stn Press Definition
kPa
Hmdx Definition


Wind Chill Definition


Weather Definition


00:00 2.3 -3.1 68 0.0 LegendMM LegendMM   99.84     LegendNANA
01:00 2.3 -3.0 68 0.0 LegendMM LegendMM   99.92     LegendNANA
02:00 2.1 -2.4 73 0.0 LegendMM LegendMM   99.96     LegendNANA
03:00 1.9 -3.2 69 0.0 LegendMM LegendMM   100.08     LegendNANA
04:00 1.2 -1.3 84 0.0 LegendMM LegendMM   100.16     LegendNANA
05:00 1.7 -2.3 75 0.0 LegendMM LegendMM   100.24     LegendNANA
06:00 1.5 -4.4 65 0.0 LegendMM LegendMM   100.28     LegendNANA
07:00 0.7 -5.8 62 0.0 LegendMM LegendMM   100.37     LegendNANA
08:00 0.4 -6.5 60 0.0 LegendMM LegendMM   100.47     LegendNANA
09:00 0.6 -6.3 60 0.0 LegendMM LegendMM   100.51     LegendNANA
10:00 0.7 -5.8 62 0.0 LegendMM LegendMM   100.57     LegendNANA
11:00 1.3 -5.6 60 0.0 LegendMM LegendMM   100.43     LegendNANA
12:00 2.1 -4.5 62 0.0 LegendMM LegendMM   100.33     LegendNANA
13:00 2.5 -5.2 57 0.0 LegendMM LegendMM   100.23     LegendNANA
14:00 2.3 -5.4 57 0.0 LegendMM LegendMM   100.13     LegendNANA
15:00 2.2 -5.6 57 0.0 LegendMM LegendMM   100.07     LegendNANA
16:00 2.0 -6.0 55 0.0 LegendMM LegendMM   100.04     LegendNANA
17:00 2.0 -5.7 57 0.0 LegendMM LegendMM   99.95     LegendNANA
18:00 2.1 -4.3 62 0.0 LegendMM LegendMM   99.80     LegendNANA
19:00 2.1 -4.8 60 0.0 LegendMM LegendMM   99.82     LegendNANA
20:00 2.3 -4.3 62 0.0 LegendMM LegendMM   99.84     LegendNANA
21:00 3.1 -3.6 61 0.0 LegendMM LegendMM   99.84     LegendNANA
22:00 2.7 -3.4 64 0.0 LegendMM LegendMM   99.78     LegendNANA
23:00 3.7 -2.4 65 0.0 LegendMM LegendMM   99.77     LegendNANA

Notes on Data Quality.

Legend

  • E = Estimated
  • M = Missing
  • NA = Not Available*
  • [empty] = Indicates an unobserved value
Date modified: